Weather Roundup
Issued by NWS

Home | Current Version | Previous Version | Text Only | Print | Product List | Glossary On
Versions: 1 2 3 4 5 6 7 8 9 10 11 12 13 14 15 16 17 18 19 20 21 22 23 24 25 26 27 28 29 30 31 32 33 34 35 36 37 38 39 40 41 42 43 44 45 46 47 48 49 50
000
NZUS93 KARX 310259
HRRWXR

CURRENT HOURLY OBSERVATIONS ACROSS
MUCH OF THE UPPER MISSISSIPPI VALLEY
NATIONAL WEATHER SERVICE LA CROSSE WI
1000 PM CDT WED JUL 30 2014


...SOUTHEAST MINNESOTA...


CITY           SKY/WX    TMP DP  RH WIND       PRES   REMARKS
ROCHESTER      CLEAR     64  58  80 W8        30.07R
ROCHESTER/MAYO FAIR      69  55  61 W6        30.06R
WINONA         CLEAR     70  61  73 CALM      30.03R
AUSTIN         CLEAR     70  57  64 W5        30.07S
ALBERT LEA     CLEAR     66  57  72 W3        30.08S
DODGE CENTER   PTCLDY    64  57  77 W6        30.07S
PRESTON        CLEAR     64  62  92 W7        30.07S
OWATONNA       CLEAR     64  57  77 SW5       30.07S
FARIBAULT      CLEAR     68  57  68 W3        30.07R
$$

...ELSEWHERE IN MINNESOTA...


CITY           SKY/WX    TMP DP  RH WIND       PRES   REMARKS
MINNEAPOLIS    CLEAR     73  57  57 W7        30.04R
INTNL FALLS    PTCLDY    63  60  90 CALM      29.99R
DULUTH         CLEAR     69  56  62 NW8       29.99R
RED WING       CLEAR     64  57  77 W3        30.02S
REDWOOD FALLS  CLEAR     70  56  61 W3        30.08R
MANKATO        CLEAR     66  54  63 W6        30.07S
WORTHINGTON    CLEAR     66  55  68 CALM      30.12R
FAIRMONT       CLEAR     64  46  52 CALM      30.09R
$$

...SOUTHWEST WISCONSIN...


CITY           SKY/WX    TMP DP  RH WIND       PRES   REMARKS
LA CROSSE      CLEAR     70  62  76 S3        30.02R
PRAIRIE DU CHI PTCLDY    66  60  81 CALM      30.04R
BOSCOBEL       CLEAR     64  61  90 CALM      30.05R
LONE ROCK      NOT AVBL
PLATTEVILLE    CLEAR     67  57  71 CALM      30.06S
FORT MC COY    MOCLDY    65  61  85 CALM      30.04R
VIROQUA        MOCLDY    65  61  85 SW3       30.06R
WIS DELLS      CLEAR     61  53  74 CALM      30.04R
$$

...ELSEWHERE IN WISCONSIN...


CITY           SKY/WX    TMP DP  RH WIND       PRES   REMARKS
MILWAUKEE      PTCLDY    63  53  70 S7        30.02R
MADISON        CLEAR     61  53  75 NW3       30.04R
GREEN BAY      LGT RAIN  62  59  90 N9        30.00R
EAU CLAIRE     CLEAR     62  62 100 SW3       30.01S
BLACK RVR FLS  DRIZZLE   64  64  98 S3        30.01S
MEDFORD        MOCLDY    62  59  91 W6        30.02S
WAUSAU         PTCLDY    63  58  83 CALM      29.98F
WIS RAPIDS     CLOUDY    67  57  70 W6        30.02R
MARSHFIELD     RAIN      63  59  87 W10       30.02R FOG
RICE LAKE      CLEAR     63  60  92 CALM      30.03R
$$

...NORTHEAST IOWA...


CITY           SKY/WX    TMP DP  RH WIND       PRES   REMARKS
WATERLOO       CLEAR     67  60  78 W7        30.06R
DUBUQUE        CLEAR     61  59  93 SW3       30.06S
DECORAH        MOCLDY    66  61  82 CALM      30.05R
MASON CITY     CLEAR     63  59  87 W3        30.10R
CHARLES CITY   CLEAR     66  61  82 W5        30.08R
OELWEIN        CLEAR     66  61  82 W7        30.07S
$$

...ELSEWHERE IN IOWA...


CITY           SKY/WX    TMP DP  RH WIND       PRES   REMARKS
DES MOINES     CLEAR     70  55  59 NW5       30.09R
IOWA CITY      CLEAR     67  61  81 SW3       30.07R
FORT DODGE     CLEAR     63  59  88 CALM      30.10S
MARSHALLTOWN   CLEAR     67  61  81 W3        30.08R
CEDAR RAPIDS   CLEAR     66  61  84 W6        30.06R
$$

...NORTHERN ILLINOIS...


CITY           SKY/WX    TMP DP  RH WIND       PRES   REMARKS
CHICAGO-OHARE  PTCLDY    66  55  67 E5        30.03R
DUPAGE         CLEAR     65  58  78 E3        30.03R
CHICAGO-MIDWAY PTCLDY    67  59  75 E5        30.04R
MOLINE         CLEAR     65  59  81 SW5       30.05R
ROCKFORD       CLEAR     67  53  61 NW6       30.07R
STERLING       CLEAR     66  55  68 NW5       30.05S
PEORIA         CLEAR     70  59  68 CALM      30.06R
$$

NOTE: "FAIR" INDICATES FEW OR NO CLOUDS BELOW 12,000 FEET WITH NO
SIGNIFICANT WEATHER AND/OR OBSTRUCTIONS TO VISIBILITY. WIND
SPEEDS ARE IN MILES-PER-HOUR.



USA.gov is the U.S. government's official web portal to all federal, state and local government web resources and services.